Mineral Wells, TX

7:10 AM CDT on September 30, 2016 (GMT -0500)
Mineral Wells

Weather History for KMWL - December, 2013

Change the Weather History Date:

Thursday, December 26, 2013

  Actual Average Record
Temperature  
Mean Temperature 40 °F -  
Max Temperature 55 °F 55 °F 81 °F (2005)
Min Temperature 24 °F 31 °F 19 °F (2012)
Degree Days  
Heating Degree Days 26    
Moisture  
Dew Point 27 °F    
Average Humidity 70    
Maximum Humidity 96    
Minimum Humidity 29    
Precipitation  
Precipitation 0.00 in - - ()
Sea Level Pressure  
Sea Level Pressure 30.39 in    
Wind  
Wind Speed 4 mph (WSW)    
Max Wind Speed 8 mph    
Max Gust Speed -    
Visibility 8 miles    
Events      
Averages and records for this station are not official NWS values.
T = Trace of Precipitation, MM = Missing Value Source: NWS Daily Summary

Daily Weather History Graph

Daily Weather History Graph

Search for Another Location

Airport or City:

Trip Planner

Search our weather history database for the weather conditions in past years. The results will help you decide how hot, cold, wet, or windy it might be!

Date:

Astronomy

Dec. 26, 2013 Rise Set
Actual Time 7:32 AM CST 5:33 PM CST
Civil Twilight 7:05 AM CST 6:00 PM CST
Nautical Twilight 6:34 AM CST 6:31 PM CST
Astronomical Twilight 6:04 AM CST 7:01 PM CST
Moon 1:17 AM CST (12/26) 12:56 PM CST (12/26)
Length of Visible Light 10h 54m
Length of Day
10h 00m
Last Quarter, 38% of the Moon is Illuminated
Dec 26
Last Quarter
Jan 1
New
Jan 7
First Quarter
Jan 15
Full
Jan 23
Last Quarter

Hourly Weather History & Observations

Time (CST) Temp. Windchill Dew Point Humidity Pressure Visibility Wind Dir Wind Speed Gust Speed Precip Events Conditions
12:53 AM 30.0 °F 25.2 °F 28.9 °F 96% 30.41 in 6.0 mi WNW 4.6 mph - N/A   Clear
1:53 AM 30.0 °F 25.2 °F 28.0 °F 92% 30.41 in 8.0 mi West 4.6 mph - N/A   Clear
2:53 AM 28.0 °F 22.8 °F 26.1 °F 92% 30.41 in 8.0 mi WSW 4.6 mph - N/A   Clear
3:53 AM 27.0 °F 23.0 °F 26.1 °F 96% 30.42 in 7.0 mi WSW 3.5 mph - N/A   Clear
4:53 AM 27.0 °F 20.5 °F 25.0 °F 92% 30.41 in 8.0 mi WNW 5.8 mph - N/A   Clear
5:53 AM 26.1 °F 20.5 °F 25.0 °F 96% 30.41 in 5.0 mi West 4.6 mph - N/A   Clear
6:53 AM 24.1 °F 19.7 °F 23.0 °F 96% 30.42 in 4.0 mi West 3.5 mph - N/A   Clear
7:53 AM 24.1 °F 18.2 °F 23.0 °F 96% 30.43 in 4.0 mi West 4.6 mph - N/A   Clear
8:53 AM 28.9 °F 23.9 °F 28.0 °F 96% 30.45 in 5.0 mi WNW 4.6 mph - N/A   Clear
9:53 AM 35.1 °F - 32.0 °F 89% 30.46 in 9.0 mi Calm Calm - N/A   Clear
10:53 AM 42.1 °F 40.2 °F 33.1 °F 70% 30.45 in 10.0 mi Variable 3.5 mph - N/A   Clear
11:53 AM 46.9 °F - 30.9 °F 54% 30.41 in 10.0 mi Calm Calm - N/A   Clear
12:53 PM 52.0 °F - 28.0 °F 40% 30.37 in 10.0 mi Calm Calm - N/A   Clear
1:53 PM 53.1 °F - 26.1 °F 35% 30.33 in 10.0 mi NNW 4.6 mph - N/A   Clear
2:53 PM 55.0 °F - 26.1 °F 33% 30.32 in 10.0 mi Variable 3.5 mph - N/A   Clear
3:53 PM 55.9 °F - 26.1 °F 32% 30.32 in 10.0 mi Calm Calm - N/A   Clear
4:53 PM 53.1 °F - 21.0 °F 29% 30.33 in 10.0 mi Calm Calm - N/A   Clear
5:53 PM 45.0 °F 41.8 °F 24.1 °F 44% 30.35 in 10.0 mi SE 5.8 mph - N/A   Clear
6:53 PM 42.1 °F 37.7 °F 27.0 °F 55% 30.36 in 10.0 mi SE 6.9 mph - N/A   Clear
7:53 PM 39.9 °F 34.5 °F 27.0 °F 60% 30.37 in 10.0 mi SSE 8.1 mph - N/A   Clear
8:53 PM 39.0 °F 34.0 °F 26.1 °F 60% 30.38 in 10.0 mi SSE 6.9 mph - N/A   Clear
9:53 PM 37.0 °F 33.3 °F 26.1 °F 65% 30.38 in 10.0 mi SSE 4.6 mph - N/A   Clear
10:53 PM 34.0 °F - 26.1 °F 73% 30.39 in 10.0 mi Calm Calm - N/A   Clear
11:53 PM 32.0 °F - 26.1 °F 79% 30.39 in 10.0 mi Calm Calm - N/A   Clear